| time (UTC) | temp C | wind direction | speed KPH | gust KPH | rain 1hr cm | rain 24hr cm | rain mn cm | humidity % | barometer mb |
| 20260510190036 | 19 | 32 | 0.0 | 20.9 | 0.00 | 0.76 | 0.00 | 45 | 1011.7 |
| 20260510184535 | 20 | 288 | 4.8 | 16.1 | 0.00 | 0.81 | 0.00 | 45 | 1011.6 |
| 20260510183041 | 19 | 245 | 1.6 | 12.9 | 0.00 | 0.81 | 0.00 | 46 | 1011.7 |
| 20260510181559 | 20 | 230 | 3.2 | 14.5 | 0.00 | 0.81 | 0.00 | 47 | 1011.8 |
| 20260510180054 | 20 | 302 | 4.8 | 16.1 | 0.00 | 0.81 | 0.00 | 48 | 1011.8 |
| 20260510174535 | 19 | 236 | 3.2 | 19.3 | 0.00 | 0.81 | 0.00 | 47 | 1011.8 |
| 20260510173034 | 19 | 235 | 3.2 | 16.1 | 0.00 | 0.81 | 0.00 | 52 | 1011.7 |
| 20260510171547 | 19 | 276 | 1.6 | 11.3 | 0.00 | 0.81 | 0.00 | 59 | 1011.6 |
| 20260510170040 | 19 | 42 | 3.2 | 14.5 | 0.00 | 0.81 | 0.00 | 58 | 1011.6 |
| 20260510164535 | 19 | 64 | 4.8 | 12.9 | 0.00 | 0.86 | 0.00 | 58 | 1011.7 |
| 20260510163034 | 18 | 146 | 1.6 | 12.9 | 0.00 | 0.86 | 0.00 | 60 | 1011.8 |
| 20260510161534 | 19 | 221 | 0.0 | 8.0 | 0.00 | 0.86 | 0.00 | 59 | 1011.9 |
| 20260510160041 | 18 | 272 | 1.6 | 9.7 | 0.00 | 0.86 | 0.00 | 60 | 1011.8 |
| 20260510154540 | 18 | 227 | 1.6 | 12.9 | 0.00 | 0.86 | 0.00 | 62 | 1011.9 |
| 20260510153035 | 17 | 190 | 1.6 | 14.5 | 0.00 | 0.86 | 0.00 | 64 | 1012.0 |
| 20260510151540 | 17 | 98 | 1.6 | 6.4 | 0.00 | 0.86 | 0.00 | 69 | 1012.2 |
| 20260510150042 | 16 | 150 | 1.6 | 4.8 | 0.00 | 0.86 | 0.00 | 73 | 1012.1 |
| 20260510144535 | 15 | 172 | 3.2 | 8.0 | 0.00 | 0.86 | 0.00 | 75 | 1012.0 |
| 20260510143037 | 15 | 86 | 1.6 | 9.7 | 0.00 | 0.86 | 0.00 | 77 | 1011.9 |
| 20260510141537 | 14 | 279 | 1.6 | 8.0 | 0.00 | 0.86 | 0.00 | 77 | 1011.9 |
| 20260510140035 | 13 | 248 | 3.2 | 9.7 | 0.00 | 0.86 | 0.00 | 79 | 1012.0 |
| 20260510134533 | 12 | 144 | 3.2 | 9.7 | 0.00 | 0.86 | 0.00 | 80 | 1011.9 |
| 20260510133034 | 11 | 52 | 1.6 | 9.7 | 0.00 | 0.86 | 0.00 | 85 | 1011.8 |
| 20260510131531 | 10 | 275 | 3.2 | 8.0 | 0.00 | 0.86 | 0.00 | 85 | 1011.8 |
| 20260510130040 | 10 | 148 | 0.0 | 1.6 | 0.00 | 0.86 | 0.00 | 85 | 1011.8 |
| 20260510124542 | 10 | 219 | 0.0 | 3.2 | 0.00 | 0.89 | 0.00 | 85 | 1011.7 |
| 20260510123034 | 10 | 221 | 0.0 | 3.2 | 0.00 | 0.89 | 0.00 | 86 | 1011.4 |
| 20260510121541 | 11 | 221 | 0.0 | 1.6 | 0.00 | 0.89 | 0.00 | 86 | 1011.3 |
| 20260510120041 | 10 | 0 | 0.0 | 1.6 | 0.00 | 0.89 | 0.00 | 86 | 1011.3 |
| 20260510114550 | 10 | 0 | 0.0 | 4.8 | 0.00 | 0.89 | 0.00 | 86 | 1011.2 |
| 20260510113035 | 9 | 0 | 0.0 | 4.8 | 0.00 | 0.89 | 0.00 | 86 | 1011.1 |
| 20260510111543 | 9 | 0 | 0.0 | 1.6 | 0.00 | 0.89 | 0.00 | 86 | 1010.9 |
| 20260510110045 | 8 | 0 | 0.0 | 4.8 | 0.00 | 0.89 | 0.00 | 86 | 1011.0 |
| 20260510104540 | 8 | 83 | 0.0 | 4.8 | 0.00 | 0.89 | 0.00 | 86 | 1010.7 |
| 20260510103040 | 8 | 217 | 0.0 | 4.8 | 0.00 | 0.89 | 0.00 | 86 | 1010.7 |
| 20260510101535 | 8 | 0 | 0.0 | 6.4 | 0.00 | 0.89 | 0.00 | 86 | 1010.5 |
| 20260510100043 | 8 | 0 | 0.0 | 4.8 | 0.00 | 0.89 | 0.00 | 86 | 1010.6 |
| 20260510094547 | 8 | 0 | 0.0 | 3.2 | 0.00 | 0.91 | 0.00 | 86 | 1010.2 |
| 20260510093043 | 8 | 0 | 0.0 | 0.0 | 0.00 | 0.91 | 0.00 | 86 | 1010.1 |
| 20260510091543 | 8 | 0 | 0.0 | 0.0 | 0.00 | 0.91 | 0.00 | 86 | 1010.5 |
| 20260510090036 | 8 | 0 | 1.6 | 4.8 | 0.00 | 0.91 | 0.00 | 86 | 1010.3 |
| 20260510084535 | 8 | 0 | 0.0 | 3.2 | 0.00 | 0.99 | 0.00 | 86 | 1010.4 |
| 20260510083053 | 8 | 190 | 0.0 | 1.6 | 0.00 | 0.99 | 0.00 | 86 | 1010.7 |
| 20260510081543 | 8 | 0 | 0.0 | 3.2 | 0.00 | 0.99 | 0.00 | 86 | 1010.6 |
| 20260510080041 | 8 | 0 | 0.0 | 6.4 | 0.00 | 0.99 | 0.00 | 86 | 1010.7 |
| 20260510074536 | 8 | 0 | 0.0 | 1.6 | 0.00 | 0.99 | 0.00 | 86 | 1010.9 |
| 20260510073043 | 8 | 22 | 1.6 | 6.4 | 0.00 | 0.99 | 0.00 | 86 | 1010.8 |
| 20260510071538 | 8 | 168 | 0.0 | 11.3 | 0.00 | 0.99 | 0.00 | 86 | 1010.4 |
| 20260510070043 | 8 | 134 | 0.0 | 3.2 | 0.00 | 0.99 | 0.00 | 86 | 1010.3 |
| 20260510064542 | 8 | 0 | 0.0 | 3.2 | 0.00 | 0.99 | 0.00 | 86 | 1010.5 |
| 20260510063041 | 9 | 203 | 0.0 | 3.2 | 0.00 | 0.99 | 0.00 | 86 | 1010.5 |
| 20260510061536 | 9 | 0 | 0.0 | 4.8 | 0.00 | 0.99 | 0.00 | 86 | 1010.4 |
| 20260510060042 | 9 | 252 | 0.0 | 1.6 | 0.00 | 0.99 | 0.00 | 86 | 1010.3 |
| 20260510054539 | 9 | 119 | 0.0 | 1.6 | 0.00 | 0.99 | 0.00 | 86 | 1010.1 |
| 20260510053041 | 9 | 0 | 0.0 | 0.0 | 0.00 | 0.99 | 0.00 | 86 | 1010.2 |
| 20260510051541 | 9 | 0 | 0.0 | 1.6 | 0.00 | 0.99 | 0.00 | 86 | 1010.2 |
| 20260510050041 | 9 | 0 | 0.0 | 0.0 | 0.00 | 0.99 | 0.00 | 86 | 1010.2 |
| 20260510044541 | 9 | 0 | 0.0 | 0.0 | 0.00 | 0.99 | 0.00 | 86 | 1010.3 |
| 20260510043037 | 9 | 0 | 0.0 | 0.0 | 0.00 | 0.99 | 0.00 | 86 | 1010.2 |
| 20260510041543 | 9 | 0 | 0.0 | 0.0 | 0.00 | 0.99 | 0.00 | 86 | 1010.3 |
| 20260510040044 | 9 | 0 | 0.0 | 1.6 | 0.00 | 0.99 | 0.00 | 86 | 1010.1 |
| 20260510034542 | 9 | 0 | 0.0 | 1.6 | 0.00 | 0.99 | 0.99 | 86 | 1010.1 |
| 20260510033041 | 10 | 168 | 0.0 | 3.2 | 0.00 | 0.99 | 0.99 | 86 | 1010.3 |
| 20260510031536 | 10 | 0 | 0.0 | 3.2 | 0.00 | 0.99 | 0.99 | 86 | 1010.5 |
| 20260510030037 | 10 | 0 | 0.0 | 1.6 | 0.00 | 0.99 | 0.99 | 86 | 1010.3 |
| 20260510024535 | 10 | 0 | 0.0 | 0.0 | 0.00 | 0.99 | 0.99 | 86 | 1010.3 |
| 20260510023041 | 10 | 0 | 0.0 | 1.6 | 0.00 | 0.99 | 0.99 | 86 | 1010.2 |
| 20260510021539 | 10 | 0 | 0.0 | 1.6 | 0.00 | 0.99 | 0.99 | 86 | 1010.1 |
| 20260510020034 | 10 | 0 | 0.0 | 1.6 | 0.00 | 0.99 | 0.99 | 86 | 1010.2 |
| 20260510014535 | 10 | 0 | 0.0 | 3.2 | 0.00 | 0.99 | 0.99 | 86 | 1010.2 |
| 20260510013041 | 10 | 0 | 0.0 | 6.4 | 0.00 | 0.99 | 0.99 | 86 | 1010.5 |
| 20260510011546 | 10 | 251 | 0.0 | 4.8 | 0.00 | 0.99 | 0.99 | 86 | 1010.2 |
| 20260510010039 | 10 | 122 | 0.0 | 4.8 | 0.00 | 0.99 | 0.99 | 85 | 1010.0 |
| 20260510004536 | 10 | 0 | 0.0 | 3.2 | 0.00 | 0.99 | 0.99 | 85 | 1009.7 |
| 20260510003040 | 10 | 0 | 0.0 | 3.2 | 0.00 | 0.99 | 0.99 | 85 | 1009.7 |
| 20260510001534 | 10 | 0 | 1.6 | 3.2 | 0.00 | 0.99 | 0.99 | 85 | 1009.4 |
| 20260510000043 | 10 | 124 | 0.0 | 3.2 | 0.00 | 0.99 | 0.99 | 85 | 1009.5 |
| 20260509234543 | 10 | 0 | 0.0 | 3.2 | 0.00 | 0.99 | 0.99 | 85 | 1009.3 |
| 20260509233039 | 10 | 0 | 0.0 | 3.2 | 0.00 | 0.99 | 0.99 | 85 | 1009.2 |
| 20260509231540 | 10 | 204 | 0.0 | 1.6 | 0.00 | 0.99 | 0.99 | 84 | 1009.3 |
| 20260509230042 | 10 | 224 | 0.0 | 3.2 | 0.00 | 0.99 | 0.99 | 84 | 1009.5 |
| 20260509224542 | 10 | 71 | 0.0 | 8.0 | 0.03 | 0.99 | 0.99 | 84 | 1009.7 |
| 20260509223041 | 10 | 131 | 0.0 | 4.8 | 0.15 | 0.99 | 0.99 | 84 | 1009.8 |
| 20260509221536 | 10 | 117 | 0.0 | 3.2 | 0.23 | 0.99 | 0.99 | 83 | 1010.1 |
| 20260509220035 | 10 | 110 | 0.0 | 3.2 | 0.28 | 0.99 | 0.99 | 83 | 1010.1 |
| 20260509214534 | 10 | 0 | 0.0 | 1.6 | 0.28 | 0.94 | 0.94 | 82 | 1010.1 |
| 20260509213045 | 10 | 86 | 1.6 | 4.8 | 0.15 | 0.81 | 0.81 | 82 | 1010.4 |
| 20260509211541 | 10 | 105 | 0.0 | 11.3 | 0.10 | 0.74 | 0.74 | 81 | 1010.2 |
| 20260509210053 | 11 | 0 | 0.0 | 1.6 | 0.10 | 0.71 | 0.71 | 82 | 1010.0 |
| 20260509204540 | 10 | 0 | 0.0 | 3.2 | 0.13 | 0.66 | 0.66 | 81 | 1010.1 |
| 20260509203040 | 10 | 0 | 0.0 | 1.6 | 0.33 | 0.66 | 0.66 | 79 | 1010.3 |
| 20260509201535 | 10 | 110 | 0.0 | 6.4 | 0.36 | 0.64 | 0.64 | 76 | 1010.4 |
| 20260509200034 | 10 | 0 | 1.6 | 8.0 | 0.38 | 0.61 | 0.61 | 75 | 1010.6 |
| 20260509194532 | 11 | 19 | 0.0 | 4.8 | 0.36 | 0.53 | 0.53 | 74 | 1010.7 |
| 20260509193042 | 11 | 0 | 0.0 | 0.0 | 0.15 | 0.33 | 0.33 | 72 | 1010.6 |
| 20260509191540 | 11 | 0 | 0.0 | 0.0 | 0.08 | 0.25 | 0.25 | 71 | 1010.7 |